Terminal Aerodrome Forecast
Issued by NWS

Home | Current Version | Previous Version | Text Only | Print | Product List | Glossary On
Versions: 1 2 3 4 5 6 7 8 9 10 11 12 13 14 15 16 17 18 19
000
FTUS41 KBGM 232300
TAFRME
TAF
KRME 232330Z 2400/2424 31010KT P6SM OVC025
      TEMPO 2400/2402 BKN015
     FM240300 32006KT P6SM BKN040
     FM241400 34010KT P6SM BKN050=

USA.gov is the U.S. government's official web portal to all federal, state and local government web resources and services.